www.pogodaiklimat.ru

Погода и климат >> Архив погоды >> Иран >> Masjed-Soleyman


ПОГОДА в Masjed-Soleyman

  • Прогноз погоды в Masjed-Soleyman
  • Монитор погоды в Masjed-Soleyman
  • Климат города

АРХИВ ПОГОДЫ в Masjed-Soleyman

Время (UTC), дата Ветер
(напр.,м/с)
 
Видим.   Явления Облачность Т
(С)
Тd
(С)
f
(%)
Тe
(С)
Тes
(С)
Комфортность P
(гПа)
Po
(гПа)
Тmin
(С)
Tmax
(С)
R
(мм)
R24
(мм)
S
(см)
18 16.06 З 2 7000 м пыль ясно +35.8 +2.1 12 +32 +32 жарко 998.8 964.6
21 16.06 ЮВ 1 8000 м пыль ясно +32.1 +3.8 17 +30 +30 жарко 998.5 964.0
00 17.06 В 1 8000 м пыль ясно +29.3 +4.7 21 +28 +28 жарко 997.7 963.2
03 17.06 ЮВ 2 5000 м пыль ясно +27.7 +4.3 22 +26 +28 жарко 998.4 963.7 +27.3
06 17.06 СЗ 1 5000 м пыль ясно +37.5 +3.2 12 +34 +51 опасность
солнечного
удара
998.5 964.1
09 17.06 З 5 10 км ясно +41.0 -2.0 7 +37 +48 очень
жарко
997.4 963.1
12 17.06 В 2 10 км ясно +43.0 -3.1 6 +39 +50 очень
жарко
996.0 961.7
15 17.06 СЗ 5 10 км ясно +42.9 -1.0 7 +39 +39 очень
жарко
995.4 961.1 +44.0
18 17.06 З 2 10 км ясно +38.1 +1.0 10 +35 +35 очень
жарко
995.6 961.5
21 17.06 штиль 0 10 км ясно +33.9 -0.2 11 +30 +30 жарко 995.0 960.9
00 18.06 ЮВ 1 10 км ясно +31.0 +1.9 16 +28 +28 жарко 995.1 960.9
03 18.06 СЗ 1 10 км ясно +30.6 +2.4 17 +28 +30 жарко 995.8 961.5 +29.0
06 18.06 С 4 10 км ясно +39.4 +2.6 10 +36 +46 очень
жарко
996.4 962.4
09 18.06 З 3 10 км ясно +43.1 -0.8 7 +39 +57 опасность
солнечного
удара
995.8 961.7
12 18.06 СЗ 5 10 км ясно +44.4 -9.0 3 +40 +46 очень
жарко
995.8 961.5
15 18.06 З 7 10 км ясно +42.2 -4.7 5 +38 +38 очень
жарко
995.8 961.4 +44.9
18 18.06 З 6 10 км ясно +38.0 -1.9 8 +34 +34 очень
жарко
997.2 963.1
21 18.06 ЮВ 1 10 км ясно +33.4 +0.3 12 +30 +30 жарко 997.2 963.1
00 19.06 Ю 2 10 км ясно +31.4 +0.5 14 +28 +28 жарко 997.9 963.7
03 19.06 ЮВ 3 10 км ясно +30.5 +0.5 15 +28 +29 жарко 999.6 965.1 +29.4
06 19.06 С 2 10 км ясно +38.4 -0.7 9 +35 +49 очень
жарко
1000.4 966.1
09 19.06 З 6 10 км ясно +41.4 -10.2 4 +37 +45 очень
жарко
1000.3 965.8
12 19.06 СЗ 7 10 км ясно +42.6 -17.1 2 +38 +41 очень
жарко
999.8 965.3
15 19.06 З 5 10 км ясно +41.9 -15.5 2 +37 +37 очень
жарко
999.3 964.8 +43.2
18 19.06 СЗ 4 6000 м мгла ясно +37.1 +0.5 10 +33 +33 жарко 1000.2 965.9
21 19.06 ЮВ 2 10 км ясно +32.0 +2.0 15 +29 +29 жарко 999.9 965.5
00 20.06 Ю 2 10 км ясно +29.2 +1.7 17 +27 +27 жарко 999.5 965.1
03 20.06 С 1 10 км ясно +30.0 +3.4 18 +28 +30 жарко 1000.4 965.9 +27.4
06 20.06 СЗ 3 10 км ясно +37.1 +0.1 10 +33 +45 жарко 1001.0 966.6
09 20.06 С 4 10 км ясно +42.6 -9.2 4 +38 +53 опасность
солнечного
удара
1000.7 966.3
12 20.06 З 7 10 км ясно +44.2 -14.2 2 +39 +43 очень
жарко
999.9 965.4
15 20.06 З 6 10 км ясно +42.9 -15.9 2 +38 +38 очень
жарко
999.4 964.9 +44.5
18 20.06 СЗ 2 7000 м пыль ясно +37.4 -4.4 7 +33 +33 жарко 1000.1 965.7
21 20.06 ЮВ 1 10 км ясно +32.8 -3.5 9 +29 +29 жарко 999.2 964.9
00 21.06 Ю 1 10 км ясно +29.7 -2.7 12 +27 +27 жарко 998.7 964.4
03 21.06 В 1 7000 м пыль ясно +29.5 -1.0 14 +27 +29 жарко 999.6 965.1 +28.2
06 21.06 ЮВ 1 5000 м пыль ясно +38.7 -2.5 7 +35 +51 опасность
солнечного
удара
1000.2 965.8
09 21.06 ЮЗ 3 10 км ясно +42.4 -4.1 5 +38 +56 опасность
солнечного
удара
999.5 965.2
12 21.06 З 3 10 км ясно +43.6 -10.7 3 +39 +49 очень
жарко
999.1 964.7
15 21.06 ЮЗ 3 10 км ясно +42.4 -6.0 5 +38 +38 очень
жарко
998.9 964.4 +44.4
18 21.06 З 2 2000 м пыль ясно +37.2 +1.2 10 +34 +34 очень
жарко
999.6 965.3
21 21.06 Ю 1 1500 м пыль ясно +33.2 +2.2 14 +30 +30 жарко 999.3 965.0
00 22.06 ЮВ 1 1500 м пыль ясно +30.4 +2.3 17 +28 +28 жарко 998.2 963.9
03 22.06 ЮВ 1 2000 м пыль ясно +30.4 +2.8 17 +28 +30 жарко 998.8 964.4 +29.2
06 22.06 С 2 3000 м пыль ясно +37.6 +2.3 11 +34 +48 очень
жарко
999.1 964.8
09 22.06 ЮЗ 4 5000 м пыль ясно +41.3 -2.0 7 +37 +52 опасность
солнечного
удара
998.8 964.5
12 22.06 ЮЗ 4 10 км ясно +43.5 -7.6 4 +39 +47 очень
жарко
997.7 963.3
15 22.06 ЮЗ 2 10 км ясно +42.0 -5.5 5 +38 +38 очень
жарко
997.2 962.8 +43.8
18 22.06 З 4 10 км ясно +37.4 0.0 10 +34 +34 очень
жарко
998.0 963.7
21 22.06 З 2 10 км ясно +33.4 +4.7 17 +31 +31 жарко 998.1 963.9
00 23.06 ЮВ 2 10 км ясно +29.7 +6.3 23 +28 +28 жарко 997.3 963.0
03 23.06 ЮВ 1 6000 м пыль ясно +29.2 +6.4 24 +28 +30 жарко 997.9 963.4 +28.4
06 23.06 Ю 3 5000 м пыль ясно +36.6 +6.3 16 +34 +46 очень
жарко
998.6 964.3
09 23.06 ЮВ 2 8000 м пыль ясно +40.6 +4.1 11 +38 +59 опасность
солнечного
удара
998.1 963.8
12 23.06 ЮЗ 4 10 км ясно +41.3 +1.9 9 +38 +46 очень
жарко
997.2 962.7
15 23.06 З 2 10 км ясно +40.6 +0.4 8 +37 +37 очень
жарко
996.9 962.4 +41.8

 

Местоположение метеостанции Masjed-Soleyman (Иран): широта 31.98 долгота 49.27 высота над уровнем моря 320 м.

В архиве по умолчанию представлена погода в Masjed-Soleyman за последнюю неделю. Архивные данные за месяц целиком и за предыдущие месяцы, начиная с января 2011 года, Вы можете получить, выбрав интересующий диапазон дат из раскрывающегося списка и нажав кнопку "Ввод!".


*Определитесь, кто Вы:
робот инопланетянин человек

Внимание! Время в таблицах - всемирное. Для получения местного времени необходимо прибавить поправку, которая в Masjed-Soleyman равна 3.5 ч.

Смотрите также архив погоды в соседних городах и на ближайших метеорологических станциях:

Погода в Safi-Abad Dezful (Иран) (86 км)
Погода в Ahwaz (Иран) (92 км)
Погода в Omidieh (Иран) (140 км)
Погода в Shahre-Kord (Иран) (153 км)
Погода в Ali-Goodarz (Иран) (163 км)
Погода в Khorram Abad (Иран) (187 км)
Погода в Amarah (Ирак) (199 км)
Погода в Abadan (Иран) (204 км)
Погода в Basrah (Ирак) (211 км)
Погода в Basrah Airport (Ирак) (216 км)

Пояснения к столбцам:

Ветер - указаны скорость ветра в м/с - средняя за 10 мин, порывы в срок и между сроками (в фигурных скобках) и направление, откуда дует ветер: С - северный, СВ - северо-восточный, В - восточный, ЮВ - юго-восточный, Ю - южный, ЮЗ - юго-западный, З - западный, СЗ - северо-западный.
Видимость - горизонтальная дальность видимости в метрах или километрах. При видимости от 1 до 10 км при отсутствии осадков обычно наблюдается дымка, при ухудшении видимости до 1 км и менее - туман. В сухую погоду видимость может ухудшаться дымом, пылью или мглою.
Явления - указаны атмосферные явления, наблюдавшиеся в срок или в последний час перед сроком; фигурными скобками обозначены явления, наблюдавшиеся между сроками (за 1-3 часа до срока); квадратными скобками обозначены град или гололедные отложения с указанием их диаметра в мм.
Облачность - указаны через наклонную черту общая и нижняя облачность в баллах и высота нижней границы облаков в метрах; квадратными скобками обозначены формы облаков: Ci - перистые, Cs - перисто-слоистые, Cc - перисто-кучевые, Ac - высококучевые, As - высокослоистые, Sc - слоисто-кучевые, Ns - слоисто-дождевые, Cu - кучевые, Cb - кучево-дождевые. Подробнее классификацию облаков см. в Атласе облаков (PDF).
T - Температура воздуха - температура, измеренная на высоте 2 м над землей.
Td - Температура точки росы - температура, при понижении до которой содержащийся в воздухе водяной пар достигнет насыщения.
f - Относительная влажность воздуха - влажноcть воздуха, измеренная на высоте 2 м над землей.
Te - Эффективная температура - температура, которую ощущает одетый по сезону человек в тени. Характеристика душности погоды. При расчете учитывается влияние влажности воздуха и скорости ветра на теплоощущения человека.
Tes - Эффективная температура на солнце - температура, которую ощущает человек, с поправкой на солнечный нагрев. Характеристика знойности погоды. Зависит от высоты солнца над горизонтом, облачности и скорости ветра. Ночью, в пасмурную погоду, а также при ветре 12 м/с и более поправка равна нулю.
P - Атмосферное давление - приведенное к уровню моря атмосферное давление.
Po - Атмосферное давление - измеренное на уровне метеостанции атмосферное давление.
Tmin - Минимальная температура - минимум температуры воздуха на высоте 2 м над землей.
Tmax - Максимальная температура - максимум температуры воздуха на высоте 2 м над землей.
R - Количество осадков - Количество выпавших осадков за период времени, мм. При наведении курсора мыши на число - период времени, за который выпало указанное количество осадков.
R24 - Количество осадков - Количество выпавших осадков за 24 часа, мм.
S - Снежный покров - Высота снежного покрова, см. При наведении курсора мыши на число - состояние снежного покрова и степень покрытия местности в баллах.